EWG24U LEPA-EDSB

Flight info

Callsign EWG24U
Flight time N/A
Altitude 36000
Route MERO9B MEROS DCT LAPIT DCT CHELY N853 LUMAS DCT UNANA DCT STP DCT RAPED DCT PIGOS DCT EKSID DCT NOSTA DCT NOPMU DCT NEDED DCT CANNE DCT KESEX Z652 MOPAN Z141 KBA
Aircraft A320/M-SDE3FGHIRWY/LB1

Departure

Time N/A
Airport Palma de Mallorca Airport (LEPA)

Arrival

Time 2026-05-01 08:53
Airport Karlsruhe Baden-Baden Airport (EDSB)
Time Latitude Longitude Altitude Speed Heading
2026-05-01 07:23 39.85074 3.29372 16140 ft 388 kts 50°
2026-05-01 07:23 39.88476 3.34904 17365 ft 395 kts 50°
2026-05-01 07:24 39.90204 3.37713 17962 ft 399 kts 50°
2026-05-01 07:24 39.91943 3.40542 18561 ft 402 kts 50°
2026-05-01 07:24 39.93695 3.43400 19091 ft 405 kts 50°
2026-05-01 07:24 39.95460 3.46281 19623 ft 409 kts 50°
2026-05-01 07:25 39.97239 3.49191 20156 ft 412 kts 50°
2026-05-01 07:25 39.99030 3.52122 20679 ft 415 kts 50°
2026-05-01 07:25 40.00857 3.55116 21206 ft 418 kts 50°
2026-05-01 07:25 40.02675 3.58095 21703 ft 421 kts 50°
2026-05-01 07:26 40.04505 3.61092 22197 ft 424 kts 50°
2026-05-01 07:26 40.06348 3.64114 22674 ft 427 kts 50°
2026-05-01 07:26 40.08204 3.67163 23147 ft 430 kts 50°
2026-05-01 07:26 40.10068 3.70230 23599 ft 433 kts 50°
2026-05-01 07:27 40.11945 3.73319 23995 ft 436 kts 50°
2026-05-01 07:27 40.13831 3.76430 24361 ft 438 kts 50°
2026-05-01 07:27 40.15904 3.79355 24705 ft 438 kts 38°
2026-05-01 07:27 40.18374 3.81692 25046 ft 440 kts 33°
2026-05-01 07:28 40.20900 3.83971 25386 ft 442 kts 32°
2026-05-01 07:28 40.23446 3.86253 25722 ft 445 kts 32°
2026-05-01 07:28 40.26006 3.88537 26056 ft 447 kts 32°
2026-05-01 07:28 40.28588 3.90836 26383 ft 450 kts 32°
2026-05-01 07:29 40.31180 3.93147 26716 ft 452 kts 32°
2026-05-01 07:29 40.33780 3.95476 27021 ft 454 kts 32°
2026-05-01 07:29 40.36393 3.97826 27328 ft 457 kts 32°
2026-05-01 07:29 40.39022 4.00193 27633 ft 459 kts 32°
2026-05-01 07:30 40.41664 4.02571 27936 ft 461 kts 32°
2026-05-01 07:30 40.44310 4.04958 28226 ft 463 kts 32°
2026-05-01 07:30 40.46975 4.07366 28510 ft 465 kts 32°
2026-05-01 07:30 40.49645 4.09781 28783 ft 467 kts 32°
2026-05-01 07:31 40.52326 4.12211 29042 ft 469 kts 32°
2026-05-01 07:31 40.60436 4.19570 29811 ft 474 kts 33°
2026-05-01 07:32 40.65849 4.24494 30474 ft 472 kts 32°
2026-05-01 07:32 40.68550 4.26949 30769 ft 471 kts 32°
2026-05-01 07:33 40.73935 4.31856 31369 ft 469 kts 32°
2026-05-01 07:33 40.76617 4.34301 31666 ft 468 kts 32°
2026-05-01 07:33 40.82432 4.37954 32244 ft 462 kts 18°
2026-05-01 07:34 40.85475 4.39481 32556 ft 461 kts 18°
2026-05-01 07:34 40.91474 4.42458 33138 ft 460 kts 18°
2026-05-01 07:34 40.94469 4.43941 33439 ft 459 kts 18°
2026-05-01 07:35 40.97456 4.45431 33729 ft 459 kts 18°
2026-05-01 07:35 41.00441 4.46932 34019 ft 458 kts 18°
2026-05-01 07:35 41.03419 4.48438 34296 ft 458 kts 18°
2026-05-01 07:35 41.06392 4.49920 34549 ft 456 kts 15°
2026-05-01 07:36 41.09448 4.50983 34796 ft 452 kts
2026-05-01 07:36 41.12539 4.51727 35039 ft 452 kts
2026-05-01 07:36 41.15629 4.52473 35277 ft 451 kts
2026-05-01 07:36 41.18716 4.53221 35520 ft 450 kts
2026-05-01 07:37 41.24867 4.54724 35978 ft 449 kts
2026-05-01 07:37 41.27937 4.55481 36161 ft 449 kts
2026-05-01 07:37 41.31017 4.56243 36224 ft 450 kts
2026-05-01 07:38 41.37173 4.57753 36210 ft 450 kts
2026-05-01 07:39 41.46281 4.60687 36220 ft 455 kts 25°
2026-05-01 07:39 41.48900 4.63088 36222 ft 460 kts 36°
2026-05-01 07:39 41.53838 4.68518 36217 ft 460 kts 37°
2026-05-01 07:40 41.58756 4.73996 36224 ft 460 kts 37°
2026-05-01 07:40 41.62879 4.78580 36232 ft 460 kts 37°
2026-05-01 07:41 41.67796 4.84040 36243 ft 459 kts 37°
2026-05-01 07:42 41.75161 4.92240 36243 ft 458 kts 37°
2026-05-01 07:42 41.80057 4.97701 36246 ft 458 kts 37°
2026-05-01 07:43 41.84945 5.03162 36245 ft 457 kts 37°
2026-05-01 07:43 41.92259 5.11365 36246 ft 456 kts 37°
2026-05-01 07:44 42.01990 5.22300 36244 ft 456 kts 37°
2026-05-01 07:45 42.06849 5.27788 36246 ft 456 kts 37°
2026-05-01 07:45 42.11701 5.33285 36253 ft 456 kts 37°
2026-05-01 07:46 42.16554 5.38793 36259 ft 456 kts 37°
2026-05-01 07:47 42.23855 5.47091 36267 ft 455 kts 37°
2026-05-01 07:47 42.28693 5.52595 36268 ft 455 kts 37°
2026-05-01 07:48 42.35939 5.60873 36276 ft 455 kts 37°
2026-05-01 07:48 42.40769 5.66399 36280 ft 454 kts 37°
2026-05-01 07:49 42.47998 5.74691 36286 ft 454 kts 37°
2026-05-01 07:50 42.52810 5.80234 36289 ft 454 kts 37°
2026-05-01 07:50 42.60014 5.88553 36286 ft 453 kts 37°
2026-05-01 07:51 42.64809 5.94105 36289 ft 452 kts 37°
2026-05-01 07:52 42.71986 6.02429 36291 ft 452 kts 37°
2026-05-01 07:52 42.76767 6.07974 36289 ft 452 kts 36°
2026-05-01 07:53 42.84710 6.14580 36293 ft 446 kts 26°
2026-05-01 07:53 42.90103 6.18753 36298 ft 446 kts 26°
2026-05-01 07:55 43.03628 6.29225 36315 ft 446 kts 26°
2026-05-01 07:56 43.17089 6.39701 36316 ft 445 kts 26°
2026-05-01 07:57 43.25146 6.46007 36316 ft 444 kts 26°
2026-05-01 07:58 43.35859 6.54425 36319 ft 443 kts 26°
2026-05-01 07:59 43.46569 6.62848 36323 ft 443 kts 26°
2026-05-01 08:00 43.62575 6.75533 36338 ft 442 kts 26°
2026-05-01 08:01 43.73216 6.84004 36333 ft 441 kts 26°
2026-05-01 08:02 43.81178 6.90378 36325 ft 440 kts 26°
2026-05-01 08:03 43.89168 6.96775 36323 ft 440 kts 27°
2026-05-01 08:03 43.97113 7.03151 36323 ft 440 kts 27°
2026-05-01 08:04 44.07689 7.11700 36335 ft 440 kts 27°
2026-05-01 08:05 44.15627 7.18129 36342 ft 440 kts 28°
2026-05-01 08:06 44.23551 7.24577 36356 ft 440 kts 28°
2026-05-01 08:07 44.34116 7.33174 36380 ft 439 kts 28°
2026-05-01 08:08 44.42032 7.39656 36403 ft 439 kts 28°
2026-05-01 08:09 44.52563 7.48322 36422 ft 439 kts 29°
2026-05-01 08:09 44.57820 7.52652 36428 ft 438 kts 29°
2026-05-01 08:10 44.68347 7.61356 36425 ft 437 kts 29°
2026-05-01 08:11 44.78800 7.70034 36416 ft 436 kts 29°
2026-05-01 08:12 44.86618 7.76558 36416 ft 435 kts 29°
2026-05-01 08:13 44.93540 7.82336 36421 ft 434 kts 30°
2026-05-01 08:13 45.01339 7.88859 36414 ft 434 kts 30°
2026-05-01 08:14 45.06524 7.93228 36416 ft 434 kts 30°
2026-05-01 08:14 45.11705 7.97603 36414 ft 434 kts 30°
2026-05-01 08:15 45.19506 8.04200 36414 ft 433 kts 30°
2026-05-01 08:16 45.24683 8.08577 36411 ft 433 kts 30°
2026-05-01 08:16 45.29852 8.12959 36406 ft 433 kts 30°
2026-05-01 08:17 45.35016 8.17349 36409 ft 432 kts 30°
2026-05-01 08:17 45.40173 8.21751 36409 ft 432 kts 30°
2026-05-01 08:18 45.45327 8.26161 36407 ft 432 kts 30°
2026-05-01 08:19 45.55635 8.34981 36421 ft 432 kts 30°
2026-05-01 08:19 45.60778 8.39406 36423 ft 431 kts 30°
2026-05-01 08:20 45.66269 8.42574 36415 ft 428 kts
2026-05-01 08:20 45.72179 8.43663 36405 ft 428 kts
2026-05-01 08:21 45.78098 8.44716 36403 ft 429 kts
2026-05-01 08:21 45.84023 8.45768 36403 ft 429 kts
2026-05-01 08:22 45.89951 8.46840 36401 ft 429 kts
2026-05-01 08:22 45.95919 8.47940 36405 ft 430 kts
2026-05-01 08:23 46.01851 8.49023 36403 ft 430 kts
2026-05-01 08:23 46.07782 8.50098 36403 ft 430 kts
2026-05-01 08:24 46.13711 8.51178 36400 ft 430 kts
2026-05-01 08:24 46.19644 8.52257 36397 ft 429 kts
2026-05-01 08:25 46.25574 8.53338 36394 ft 429 kts
2026-05-01 08:25 46.31498 8.54438 36388 ft 429 kts
2026-05-01 08:26 46.37423 8.55530 36381 ft 429 kts
2026-05-01 08:26 46.43346 8.56632 36364 ft 429 kts
2026-05-01 08:27 46.49265 8.57721 36359 ft 429 kts
2026-05-01 08:27 46.55185 8.58816 36348 ft 428 kts
2026-05-01 08:28 46.61094 8.59926 36345 ft 428 kts
2026-05-01 08:28 46.67049 8.61040 36345 ft 428 kts
2026-05-01 08:29 46.72953 8.62130 36344 ft 428 kts
2026-05-01 08:29 46.78856 8.63232 36343 ft 427 kts
2026-05-01 08:30 46.84749 8.64339 36350 ft 427 kts
2026-05-01 08:30 46.90639 8.65455 36350 ft 427 kts
2026-05-01 08:31 46.96554 8.65746 36348 ft 429 kts 351°
2026-05-01 08:31 47.02405 8.64019 36339 ft 429 kts 350°
2026-05-01 08:31 47.05335 8.63130 36123 ft 430 kts 350°
2026-05-01 08:32 47.08267 8.62237 35866 ft 431 kts 350°
2026-05-01 08:32 47.11207 8.61345 35586 ft 431 kts 350°
2026-05-01 08:32 47.14139 8.60460 34951 ft 431 kts 351°
2026-05-01 08:32 47.17078 8.59576 34168 ft 431 kts 351°
2026-05-01 08:33 47.20022 8.58689 33264 ft 433 kts 351°
2026-05-01 08:33 47.22979 8.57794 32341 ft 435 kts 351°
2026-05-01 08:33 47.25952 8.56889 31414 ft 437 kts 351°
2026-05-01 08:33 47.28940 8.55975 30437 ft 440 kts 350°
2026-05-01 08:34 47.31953 8.55054 29309 ft 443 kts 350°
2026-05-01 08:34 47.34962 8.54136 28480 ft 440 kts 350°
2026-05-01 08:34 47.37956 8.53222 27716 ft 436 kts 350°
2026-05-01 08:34 47.40949 8.52302 26964 ft 432 kts 350°
2026-05-01 08:35 47.43879 8.51402 26264 ft 428 kts 350°
2026-05-01 08:35 47.46785 8.50510 25580 ft 425 kts 350°
2026-05-01 08:35 47.49667 8.49626 24920 ft 421 kts 350°
2026-05-01 08:35 47.52527 8.48748 24278 ft 418 kts 350°
2026-05-01 08:36 47.55363 8.47876 23592 ft 415 kts 350°
2026-05-01 08:36 47.58182 8.47007 22900 ft 412 kts 350°
2026-05-01 08:36 47.60981 8.46142 22245 ft 410 kts 350°
2026-05-01 08:36 47.63759 8.45283 21609 ft 407 kts 350°
2026-05-01 08:37 47.66525 8.44428 20992 ft 405 kts 350°
2026-05-01 08:37 47.69263 8.43503 20399 ft 404 kts 345°
2026-05-01 08:37 47.71928 8.42192 19838 ft 402 kts 343°
2026-05-01 08:37 47.74572 8.40867 19288 ft 400 kts 343°
2026-05-01 08:38 47.77207 8.39547 18752 ft 399 kts 343°
2026-05-01 08:38 47.79831 8.38230 18179 ft 397 kts 343°
2026-05-01 08:38 47.82437 8.36919 17623 ft 394 kts 343°
2026-05-01 08:38 47.85024 8.35613 17099 ft 391 kts 343°
2026-05-01 08:39 47.87587 8.34318 16591 ft 388 kts 343°
2026-05-01 08:39 47.90135 8.33028 16089 ft 385 kts 343°
2026-05-01 08:39 47.92659 8.31751 15595 ft 382 kts 343°
2026-05-01 08:39 47.95132 8.30497 15444 ft 369 kts 343°
2026-05-01 08:40 47.99848 8.28108 14981 ft 351 kts 343°
2026-05-01 08:40 48.02169 8.26932 14469 ft 353 kts 343°
2026-05-01 08:40 48.04533 8.25733 13890 ft 355 kts 343°
2026-05-01 08:41 48.06878 8.24538 13325 ft 356 kts 343°
2026-05-01 08:41 48.09209 8.23347 12954 ft 351 kts 343°
2026-05-01 08:41 48.11495 8.22176 12621 ft 345 kts 342°
2026-05-01 08:41 48.13743 8.21023 12288 ft 338 kts 342°
2026-05-01 08:42 48.15955 8.19890 11961 ft 334 kts 343°
2026-05-01 08:42 48.18139 8.18778 11622 ft 330 kts 343°
2026-05-01 08:42 48.20271 8.17693 11301 ft 316 kts 343°
2026-05-01 08:42 48.22324 8.16644 11129 ft 307 kts 343°
2026-05-01 08:43 48.24318 8.15616 10973 ft 300 kts 341°
2026-05-01 08:43 48.26230 8.14374 10839 ft 300 kts 338°
2026-05-01 08:43 48.28137 8.13135 10594 ft 298 kts 339°
2026-05-01 08:43 48.30045 8.11943 10228 ft 295 kts 339°
2026-05-01 08:44 48.31942 8.10773 9814 ft 294 kts 339°
2026-05-01 08:44 48.33832 8.09609 9398 ft 293 kts 339°
2026-05-01 08:44 48.35715 8.08450 8986 ft 290 kts 339°
2026-05-01 08:44 48.37550 8.07314 8574 ft 280 kts 339°
2026-05-01 08:45 48.39315 8.06215 8178 ft 271 kts 339°
2026-05-01 08:45 48.41022 8.05152 7782 ft 261 kts 339°
2026-05-01 08:45 48.42143 8.04452 7514 ft 255 kts 339°
2026-05-01 08:45 48.43759 8.03443 7130 ft 249 kts 339°
2026-05-01 08:46 48.45342 8.02455 6744 ft 244 kts 339°
2026-05-01 08:46 48.46886 8.01489 6332 ft 237 kts 339°
2026-05-01 08:46 48.48392 8.00545 5938 ft 231 kts 339°
2026-05-01 08:46 48.49865 7.99619 5530 ft 230 kts 338°
2026-05-01 08:47 48.51338 7.98698 5125 ft 228 kts 339°
2026-05-01 08:47 48.52805 7.97779 4720 ft 228 kts 339°
2026-05-01 08:47 48.54266 7.96861 4327 ft 228 kts 339°
2026-05-01 08:47 48.55698 7.95960 4198 ft 216 kts 339°
2026-05-01 08:48 48.57032 7.95118 4127 ft 200 kts 338°
2026-05-01 08:48 48.58298 7.94319 4037 ft 195 kts 339°
2026-05-01 08:48 48.59538 7.93538 4017 ft 193 kts 339°
2026-05-01 08:48 48.60829 7.93088 3960 ft 190 kts
2026-05-01 08:49 48.62111 7.93392 3814 ft 185 kts 25°
2026-05-01 08:49 48.63225 7.94320 3613 ft 185 kts 36°
2026-05-01 08:49 48.64328 7.95347 3360 ft 186 kts 36°
2026-05-01 08:49 48.65421 7.96363 3133 ft 183 kts 36°
2026-05-01 08:50 48.66514 7.97381 2872 ft 186 kts 35°
2026-05-01 08:50 48.67581 7.98374 2635 ft 176 kts 34°
2026-05-01 08:50 48.68613 7.99336 2381 ft 171 kts 34°
2026-05-01 08:50 48.69576 8.00232 2171 ft 153 kts 34°
2026-05-01 08:51 48.70454 8.01051 1988 ft 147 kts 34°
2026-05-01 08:51 48.71320 8.01861 1766 ft 145 kts 33°
2026-05-01 08:51 48.72156 8.02642 1564 ft 138 kts 33°
2026-05-01 08:51 48.72970 8.03403 1378 ft 136 kts 32°
2026-05-01 08:52 48.73771 8.04152 1200 ft 134 kts 31°
2026-05-01 08:52 48.74572 8.04901 1023 ft 133 kts 30°
2026-05-01 08:52 48.75361 8.05638 835 ft 133 kts 30°
2026-05-01 08:52 48.76145 8.06368 659 ft 132 kts 30°
2026-05-01 08:53 48.76919 8.07092 457 ft 130 kts 30°
2026-05-01 08:53 48.77618 8.07750 412 ft 88 kts 32°
2026-05-01 08:53 48.77875 8.08009 412 ft 14 kts 71°
2026-05-01 08:53 48.77844 8.08124 412 ft 0 kts 121°
2026-05-01 08:54 48.77830 8.08158 412 ft 0 kts 122°
2026-05-01 08:54 48.77826 8.08169 412 ft 7 kts 120°
2026-05-01 08:55 48.77832 8.08239 409 ft 6 kts 54°
2026-05-01 08:55 48.77864 8.08274 412 ft 5 kts 30°
2026-05-01 08:55 48.77900 8.08308 412 ft 8 kts 32°
2026-05-01 08:55 48.77959 8.08365 412 ft 11 kts 33°
2026-05-01 08:56 48.78030 8.08433 413 ft 13 kts 32°
2026-05-01 08:56 48.78110 8.08508 412 ft 14 kts 31°
2026-05-01 08:56 48.78188 8.08580 411 ft 12 kts 31°
2026-05-01 08:56 48.78251 8.08638 413 ft 9 kts 32°
2026-05-01 08:57 48.78282 8.08697 412 ft 6 kts 84°
2026-05-01 08:57 48.78269 8.08746 410 ft 5 kts 117°
2026-05-01 08:57 48.78254 8.08785 410 ft 4 kts 122°
2026-05-01 08:57 48.78240 8.08819 409 ft 3 kts 121°
2026-05-01 08:58 48.78232 8.08849 412 ft 3 kts 103°
2026-05-01 08:58 48.78235 8.08878 412 ft 3 kts 75°
2026-05-01 08:58 48.78241 8.08908 412 ft 3 kts 75°
2026-05-01 08:58 48.78238 8.08933 412 ft 2 kts 112°
2026-05-01 08:59 48.78230 8.08950 409 ft 2 kts 122°
2026-05-01 08:59 48.78219 8.08965 412 ft 4 kts 147°
2026-05-01 08:59 48.78217 8.08967 412 ft 0 kts 151°